| time (UTC) | temp C | wind direction | speed KPH | gust KPH | rain 1hr cm | rain 24hr cm | rain mn cm | humidity % | barometer mb |
| 20260510174529 | 27 | 265 | 1.6 | 8.0 | 0.00 | 0.00 | 0.00 | 48 | 1013.1 |
| 20260510173033 | 27 | 251 | 1.6 | 6.4 | 0.00 | 0.00 | 0.00 | 51 | 1013.0 |
| 20260510171540 | 26 | 359 | 3.2 | 11.3 | 0.00 | 0.00 | 0.00 | 47 | 1013.0 |
| 20260510170031 | 26 | 229 | 3.2 | 8.0 | 0.00 | 0.00 | 0.00 | 52 | 1013.2 |
| 20260510164531 | 26 | 290 | 1.6 | 4.8 | 0.00 | 0.00 | 0.00 | 49 | 1013.3 |
| 20260510163028 | 25 | 104 | 1.6 | 8.0 | 0.00 | 0.00 | 0.00 | 57 | 1013.2 |
| 20260510161532 | 25 | 259 | 1.6 | 11.3 | 0.00 | 0.00 | 0.00 | 56 | 1013.4 |
| 20260510160043 | 25 | 260 | 3.2 | 11.3 | 0.00 | 0.00 | 0.00 | 55 | 1013.5 |
| 20260510154547 | 24 | 235 | 1.6 | 12.9 | 0.00 | 0.00 | 0.00 | 56 | 1013.5 |
| 20260510153043 | 23 | 219 | 4.8 | 14.5 | 0.00 | 0.00 | 0.00 | 56 | 1013.5 |
| 20260510151532 | 23 | 240 | 3.2 | 9.7 | 0.00 | 0.00 | 0.00 | 60 | 1013.5 |
| 20260510150033 | 22 | 226 | 3.2 | 8.0 | 0.00 | 0.00 | 0.00 | 62 | 1013.3 |
| 20260510144545 | 22 | 66 | 3.2 | 12.9 | 0.00 | 0.00 | 0.00 | 65 | 1013.1 |
| 20260510143032 | 21 | 307 | 1.6 | 9.7 | 0.00 | 0.00 | 0.00 | 72 | 1013.2 |
| 20260510141533 | 20 | 293 | 1.6 | 8.0 | 0.00 | 0.00 | 0.00 | 77 | 1013.4 |
| 20260510140032 | 19 | 0 | 0.0 | 4.8 | 0.00 | 0.00 | 0.00 | 78 | 1013.4 |
| 20260510134532 | 18 | 240 | 1.6 | 4.8 | 0.00 | 0.00 | 0.00 | 79 | 1013.3 |
| 20260510133032 | 17 | 8 | 1.6 | 4.8 | 0.00 | 0.00 | 0.00 | 81 | 1013.3 |
| 20260510131533 | 17 | 0 | 0.0 | 3.2 | 0.00 | 0.00 | 0.00 | 86 | 1013.6 |
| 20260510130032 | 16 | 162 | 0.0 | 3.2 | 0.00 | 0.00 | 0.00 | 90 | 1013.7 |
| 20260510124534 | 15 | 291 | 0.0 | 1.6 | 0.00 | 0.00 | 0.00 | 93 | 1013.5 |
| 20260510123033 | 13 | 0 | 0.0 | 4.8 | 0.00 | 0.00 | 0.00 | 97 | 1013.5 |
| 20260510121531 | 13 | 35 | 0.0 | 3.2 | 0.00 | 0.00 | 0.00 | 98 | 1013.3 |
| 20260510120032 | 12 | 43 | 0.0 | 3.2 | 0.00 | 0.00 | 0.00 | 99 | 1013.3 |
| 20260510114530 | 12 | 241 | 0.0 | 1.6 | 0.00 | 0.00 | 0.00 | 99 | 1013.3 |
| 20260510113033 | 11 | 0 | 0.0 | 0.0 | 0.00 | 0.00 | 0.00 | 99 | 1012.8 |
| 20260510111543 | 11 | 0 | 0.0 | 1.6 | 0.00 | 0.00 | 0.00 | 100 | 1012.6 |
| 20260510110033 | 10 | 0 | 0.0 | 1.6 | 0.00 | 0.00 | 0.00 | 99 | 1012.4 |
| 20260510104536 | 10 | 0 | 0.0 | 0.0 | 0.00 | 0.00 | 0.00 | 99 | 1012.0 |
| 20260510103031 | 8 | 0 | 0.0 | 3.2 | 0.00 | 0.00 | 0.00 | 98 | 1011.6 |
| 20260510101532 | 7 | 0 | 0.0 | 0.0 | 0.00 | 0.00 | 0.00 | 98 | 1011.7 |
| 20260510100033 | 7 | 0 | 0.0 | 0.0 | 0.00 | 0.00 | 0.00 | 97 | 1011.9 |
| 20260510094533 | 8 | 0 | 0.0 | 0.0 | 0.00 | 0.00 | 0.00 | 98 | 1011.9 |
| 20260510093032 | 9 | 0 | 0.0 | 1.6 | 0.00 | 0.00 | 0.00 | 98 | 1011.8 |
| 20260510091533 | 8 | 219 | 0.0 | 1.6 | 0.00 | 0.00 | 0.00 | 98 | 1011.5 |
| 20260510090032 | 8 | 0 | 0.0 | 1.6 | 0.00 | 0.00 | 0.00 | 98 | 1011.4 |
| 20260510084545 | 8 | 0 | 0.0 | 0.0 | 0.00 | 0.00 | 0.00 | 98 | 1011.0 |
| 20260510083038 | 9 | 0 | 0.0 | 0.0 | 0.00 | 0.00 | 0.00 | 98 | 1010.8 |
| 20260510081535 | 9 | 0 | 0.0 | 0.0 | 0.00 | 0.00 | 0.00 | 98 | 1010.6 |
| 20260510080030 | 9 | 0 | 0.0 | 0.0 | 0.00 | 0.00 | 0.00 | 97 | 1010.7 |
| 20260510074538 | 9 | 0 | 0.0 | 1.6 | 0.00 | 0.00 | 0.00 | 98 | 1010.6 |
| 20260510073045 | 9 | 0 | 0.0 | 0.0 | 0.00 | 0.00 | 0.00 | 98 | 1010.3 |
| 20260510071532 | 9 | 0 | 0.0 | 0.0 | 0.00 | 0.00 | 0.00 | 97 | 1010.3 |
| 20260510070036 | 9 | 0 | 0.0 | 0.0 | 0.00 | 0.00 | 0.00 | 97 | 1010.2 |
| 20260510064532 | 10 | 0 | 0.0 | 0.0 | 0.00 | 0.00 | 0.00 | 97 | 1010.2 |
| 20260510063033 | 9 | 0 | 0.0 | 0.0 | 0.00 | 0.00 | 0.00 | 97 | 1010.1 |
| 20260510061531 | 10 | 0 | 0.0 | 0.0 | 0.00 | 0.00 | 0.00 | 96 | 1010.5 |
| 20260510060039 | 10 | 0 | 0.0 | 0.0 | 0.00 | 0.00 | 0.00 | 97 | 1010.4 |
| 20260510054531 | 10 | 0 | 0.0 | 0.0 | 0.00 | 0.00 | 0.00 | 96 | 1010.4 |
| 20260510053032 | 10 | 0 | 0.0 | 0.0 | 0.00 | 0.00 | 0.00 | 96 | 1010.4 |
| 20260510051536 | 10 | 0 | 0.0 | 0.0 | 0.00 | 0.00 | 0.00 | 96 | 1010.6 |
| 20260510050034 | 10 | 0 | 0.0 | 0.0 | 0.00 | 0.00 | 0.00 | 96 | 1010.8 |
| 20260510044532 | 10 | 0 | 0.0 | 0.0 | 0.00 | 0.00 | 0.00 | 95 | 1010.9 |
| 20260510043031 | 10 | 0 | 0.0 | 0.0 | 0.00 | 0.00 | 0.00 | 96 | 1010.8 |
| 20260510041534 | 10 | 0 | 0.0 | 0.0 | 0.00 | 0.00 | 0.00 | 95 | 1010.8 |
| 20260510040033 | 10 | 0 | 0.0 | 0.0 | 0.00 | 0.00 | 0.00 | 94 | 1010.8 |
| 20260510034559 | 11 | 0 | 0.0 | 0.0 | 0.00 | 0.00 | 0.00 | 95 | 1010.8 |
| 20260510033030 | 11 | 0 | 0.0 | 0.0 | 0.00 | 0.00 | 0.00 | 94 | 1010.8 |
| 20260510031535 | 11 | 0 | 0.0 | 0.0 | 0.00 | 0.00 | 0.00 | 93 | 1010.6 |
| 20260510030035 | 11 | 0 | 0.0 | 0.0 | 0.00 | 0.00 | 0.00 | 94 | 1010.6 |
| 20260510024534 | 11 | 0 | 0.0 | 0.0 | 0.00 | 0.00 | 0.00 | 93 | 1010.4 |
| 20260510023040 | 11 | 0 | 0.0 | 0.0 | 0.00 | 0.00 | 0.00 | 93 | 1010.3 |
| 20260510021535 | 11 | 0 | 0.0 | 0.0 | 0.00 | 0.00 | 0.00 | 93 | 1010.3 |
| 20260510020030 | 11 | 0 | 0.0 | 0.0 | 0.00 | 0.00 | 0.00 | 91 | 1010.3 |
| 20260510014529 | 11 | 0 | 0.0 | 0.0 | 0.00 | 0.00 | 0.00 | 91 | 1010.2 |
| 20260510013032 | 12 | 0 | 0.0 | 0.0 | 0.00 | 0.00 | 0.00 | 91 | 1010.1 |
| 20260510011531 | 12 | 0 | 0.0 | 0.0 | 0.00 | 0.00 | 0.00 | 89 | 1010.0 |
| 20260510010032 | 12 | 0 | 0.0 | 0.0 | 0.00 | 0.00 | 0.00 | 87 | 1009.9 |
| 20260510004532 | 13 | 0 | 0.0 | 0.0 | 0.00 | 0.00 | 0.00 | 85 | 1009.8 |
| 20260510003031 | 14 | 0 | 0.0 | 1.6 | 0.00 | 0.00 | 0.00 | 84 | 1009.8 |
| 20260510001531 | 15 | 0 | 0.0 | 3.2 | 0.00 | 0.00 | 0.00 | 82 | 1009.7 |
| 20260510000035 | 15 | 86 | 3.2 | 8.0 | 0.00 | 0.00 | 0.00 | 81 | 1009.8 |
| 20260509234537 | 15 | 91 | 0.0 | 8.0 | 0.00 | 0.00 | 0.00 | 80 | 1009.8 |
| 20260509233030 | 16 | 92 | 1.6 | 8.0 | 0.00 | 0.00 | 0.00 | 78 | 1009.8 |
| 20260509231530 | 16 | 97 | 4.8 | 9.7 | 0.00 | 0.00 | 0.00 | 78 | 1009.6 |
| 20260509230032 | 16 | 101 | 4.8 | 12.9 | 0.00 | 0.00 | 0.00 | 77 | 1009.4 |
| 20260509224539 | 17 | 97 | 3.2 | 8.0 | 0.00 | 0.00 | 0.00 | 75 | 1009.6 |
| 20260509223030 | 17 | 94 | 3.2 | 8.0 | 0.00 | 0.00 | 0.00 | 75 | 1009.5 |
| 20260509221533 | 18 | 98 | 3.2 | 8.0 | 0.00 | 0.00 | 0.00 | 74 | 1009.5 |
| 20260509220031 | 18 | 94 | 3.2 | 6.4 | 0.00 | 0.00 | 0.00 | 74 | 1009.5 |
| 20260509214533 | 19 | 94 | 1.6 | 4.8 | 0.00 | 0.00 | 0.00 | 73 | 1009.3 |
| 20260509213031 | 19 | 0 | 0.0 | 4.8 | 0.00 | 0.00 | 0.00 | 72 | 1009.2 |
| 20260509211530 | 19 | 89 | 0.0 | 4.8 | 0.00 | 0.00 | 0.00 | 72 | 1009.2 |
| 20260509210038 | 20 | 0 | 0.0 | 4.8 | 0.00 | 0.00 | 0.00 | 71 | 1009.1 |
| 20260509204532 | 20 | 107 | 1.6 | 3.2 | 0.00 | 0.00 | 0.00 | 70 | 1009.2 |
| 20260509203032 | 20 | 46 | 0.0 | 4.8 | 0.00 | 0.00 | 0.00 | 70 | 1009.5 |
| 20260509201532 | 20 | 32 | 0.0 | 4.8 | 0.00 | 0.00 | 0.00 | 69 | 1009.6 |
| 20260509200034 | 20 | 68 | 0.0 | 6.4 | 0.00 | 0.00 | 0.00 | 69 | 1009.4 |
| 20260509194535 | 20 | 0 | 0.0 | 4.8 | 0.00 | 0.00 | 0.00 | 70 | 1009.5 |
| 20260509193032 | 20 | 0 | 0.0 | 6.4 | 0.00 | 0.00 | 0.00 | 70 | 1009.8 |
| 20260509191532 | 20 | 0 | 0.0 | 6.4 | 0.00 | 0.00 | 0.00 | 70 | 1009.5 |
| 20260509190033 | 19 | 299 | 1.6 | 8.0 | 0.00 | 0.00 | 0.00 | 71 | 1010.1 |
| 20260509184538 | 18 | 0 | 0.0 | 3.2 | 0.00 | 0.00 | 0.00 | 73 | 1010.4 |
| 20260509183031 | 18 | 27 | 0.0 | 6.4 | 0.00 | 0.00 | 0.00 | 71 | 1010.6 |
| 20260509181541 | 18 | 350 | 1.6 | 6.4 | 0.00 | 0.00 | 0.00 | 71 | 1010.7 |
| 20260509180033 | 18 | 0 | 0.0 | 3.2 | 0.00 | 0.00 | 0.00 | 71 | 1010.7 |